Preview of NWS' New Version of Forecast
This preview is not operational and should not be used for support decisions.

Regional Weather Roundup (RWR)

Issued by National Weather Service (NWS)

                            
000
ASUS44 KMEG 231100
RWRTN 
TENNESSEE HOURLY STATE WEATHER ROUNDUP
NATIONAL WEATHER SERVICE MEMPHIS TN
500 AM CST SAT FEB 23 2019

TNZ002-004-019-021-049-052-054-088>092-231200-
WEST TENNESSEE
  
CITY           SKY/WX    TMP DP  RH WIND       PRES   REMARKS
MEMPHIS INTL   LGT RAIN  61  59  93 SE12      29.93R                  
NWS MEMPHIS      N/A     58 N/A N/A MISG        N/A                   
JACKSON        LGT RAIN  58  56  93 S9        29.95F                  
DYERSBURG      CLOUDY    56  56 100 SE9       29.93S                  
$$

TNZ008-025-027-028-033-062-065-066-231200-
NORTH MIDDLE TENNESSEE
  
CITY           SKY/WX    TMP DP  RH WIND       PRES   REMARKS
NASHVILLE      LGT RAIN  53  51  93 SE8       30.06R                  
CLARKSVILLE    LGT RAIN  50  48  93 S17       29.98F                  
SMYRNA         RAIN      53  52  96 E5        30.07R FOG              
CROSSVILLE     LGT RAIN  51  50  96 CALM      30.11R                  
$$

TNZ061-075-076-078-094-096-097-231200-
SOUTH MIDDLE TENNESSEE
  
CITY           SKY/WX    TMP DP  RH WIND       PRES   REMARKS
$$

TNZ017-018-042-046-047-231200-
NORTHEAST TENNESSEE
  
CITY           SKY/WX    TMP DP  RH WIND       PRES   REMARKS
TRI CITIES     RAIN      48  48 100 E5        30.18S FOG              
$$

TNZ012-013-036-069-073-074-231200-
CENTRAL EAST TENNESSEE
  
CITY           SKY/WX    TMP DP  RH WIND       PRES   REMARKS
KNOXVILLE      HVY RAIN  50  49  96 NE6       30.12R FOG              
OAK RIDGE      HVY RAIN  50  50 100 CALM      30.14R FOG              
$$

TNZ083-085-099-231200-
SOUTHEAST TENNESSEE
  
CITY           SKY/WX    TMP DP  RH WIND       PRES   REMARKS
CHATTANOOGA    LGT RAIN  52  51  97 NE7       30.13R FOG              
$$

SKY/WX REPORTED AS FAIR MEANS FEW OR NO CLOUDS BELOW
12 THOUSAND FEET.